• In Russia
  • List of Countries
  • For 7 days
  • Water Temperature
  • Satellite Maps
  • Weather Map
  • Weather Widgets
  • user-avatar
    Login

    Hourly Weather Koma

    Today, 19 July, Thursday

    Time Temperature Precipitation Wind Pressure Humidity
    00:00 +18°C° 0 mm 1 mps 710 mmHg 93%
    01:00 +18°C° 0 mm 1 mps 710 mmHg 94%
    02:00 +18°C° 0 mm 1 mps 710 mmHg 94%
    03:00 +16°C° 0 mm 1 mps 710 mmHg 94%
    04:00 +16°C° 0 mm 1 mps 710 mmHg 94%
    05:00 +19°C° 0 mm 1 mps 710 mmHg 87%
    06:00 +21°C° 0 mm 1 mps 711 mmHg 80%
    07:00 +23°C° 0 mm 1 mps 711 mmHg 73%
    08:00 +25°C° 0 mm 2 mps 711 mmHg 67%
    09:00 +26°C° 0 mm 2 mps 711 mmHg 61%
    10:00 +27°C° 0 mm 3 mps 711 mmHg 55%
    11:00 +28°C° 0.1 mm 3 mps 710 mmHg 53%
    12:00 +29°C° 0.1 mm 3 mps 710 mmHg 52%
    13:00 +29°C° 0 mm 3 mps 710 mmHg 51%
    14:00 +29°C° 0 mm 3 mps 710 mmHg 50%
    15:00 +29°C° 0 mm 3 mps 709 mmHg 49%
    16:00 +29°C° 0 mm 3 mps 709 mmHg 49%
    17:00 +28°C° 0.1 mm 3 mps 709 mmHg 55%
    18:00 +27°C° 0.1 mm 3 mps 709 mmHg 60%
    19:00 +26°C° 0.1 mm 2 mps 708 mmHg 66%
    20:00 +24°C° 0.1 mm 2 mps 708 mmHg 73%
    21:00 +21°C° 0.1 mm 2 mps 708 mmHg 79%
    22:00 +20°C° 0.1 mm 2 mps 708 mmHg 86%
    23:00 +19°C° 0 mm 2 mps 708 mmHg 88%

    Tomorrow, 20 July, Friday

    Time Temperature Precipitation Wind Pressure Humidity
    00:00 +19°C° 0 mm 2 mps 708 mmHg 91%
    01:00 +18°C° 0 mm 2 mps 707 mmHg 93%
    02:00 +18°C° 0 mm 2 mps 707 mmHg 94%
    03:00 +18°C° 0 mm 2 mps 707 mmHg 94%
    04:00 +18°C° 0 mm 2 mps 707 mmHg 94%
    05:00 +19°C° 0.1 mm 2 mps 707 mmHg 89%
    06:00 +21°C° 0.1 mm 2 mps 707 mmHg 84%
    07:00 +23°C° 0.1 mm 2 mps 706 mmHg 78%
    08:00 +25°C° 0.3 mm 3 mps 706 mmHg 72%
    09:00 +27°C° 0.3 mm 3 mps 706 mmHg 66%
    10:00 +28°C° 0.3 mm 3 mps 706 mmHg 60%
    11:00 +30°C° 0.6 mm 3 mps 706 mmHg 56%
    12:00 +31°C° 0.6 mm 3 mps 706 mmHg 52%
    13:00 +34°C° 0.6 mm 3 mps 705 mmHg 47%
    14:00 +31°C° 1.2 mm 3 mps 705 mmHg 54%
    15:00 +30°C° 1.2 mm 2 mps 705 mmHg 61%
    16:00 +28°C° 1.2 mm 2 mps 705 mmHg 68%
    17:00 +27°C° 2.2 mm 2 mps 705 mmHg 75%
    18:00 +25°C° 2.2 mm 1 mps 705 mmHg 81%
    19:00 +24°C° 2.2 mm 1 mps 705 mmHg 88%
    20:00 +23°C° 2.6 mm 1 mps 705 mmHg 90%
    21:00 +22°C° 2.6 mm 1 mps 705 mmHg 92%
    22:00 +21°C° 2.6 mm 1 mps 705 mmHg 94%
    23:00 +21°C° 1.4 mm 1 mps 705 mmHg 95%

    Day after tomorrow, 21 July, Saturday

    Time Temperature Precipitation Wind Pressure Humidity
    00:00 +19°C° 1.4 mm 2 mps 705 mmHg 95%
    01:00 +19°C° 1.4 mm 2 mps 705 mmHg 96%
    02:00 +18°C° 0.2 mm 2 mps 705 mmHg 96%
    03:00 +18°C° 0.2 mm 3 mps 704 mmHg 96%
    04:00 +17°C° 0.2 mm 3 mps 704 mmHg 96%
    05:00 +17°C° 0.1 mm 3 mps 705 mmHg 95%
    06:00 +17°C° 0.1 mm 3 mps 705 mmHg 93%
    07:00 +17°C° 0.1 mm 4 mps 705 mmHg 91%
    08:00 +18°C° 0 mm 4 mps 705 mmHg 88%
    09:00 +18°C° 0 mm 4 mps 706 mmHg 84%
    10:00 +19°C° 0 mm 4 mps 706 mmHg 81%
    11:00 +17°C° 0.1 mm 5 mps 706 mmHg 81%
    12:00 +17°C° 0.1 mm 5 mps 706 mmHg 80%
    13:00 +17°C° 0.1 mm 5 mps 706 mmHg 80%
    14:00 +17°C° 0.1 mm 5 mps 707 mmHg 82%
    15:00 +16°C° 0.1 mm 5 mps 707 mmHg 83%
    16:00 +16°C° 0.1 mm 5 mps 707 mmHg 85%
    17:00 +16°C° 0.3 mm 5 mps 707 mmHg 87%
    18:00 +15°C° 0.3 mm 4 mps 708 mmHg 89%
    19:00 +14°C° 0.3 mm 4 mps 708 mmHg 91%
    20:00 +14°C° 0.2 mm 4 mps 708 mmHg 92%
    21:00 +14°C° 0.2 mm 4 mps 709 mmHg 92%
    22:00 +14°C° 0.2 mm 4 mps 709 mmHg 93%
    23:00 +14°C° 0.1 mm 4 mps 709 mmHg 93%

    22 July, Sunday

    Time Temperature Precipitation Wind Pressure Humidity
    00:00 +14°C° 0.1 mm 4 mps 709 mmHg 93%
    01:00 +13°C° 0.1 mm 5 mps 709 mmHg 93%
    02:00 +13°C° 0.2 mm 5 mps 710 mmHg 93%
    03:00 +13°C° 0.2 mm 5 mps 710 mmHg 92%
    04:00 +12°C° 0.2 mm 5 mps 710 mmHg 92%
    05:00 +12°C° 0.2 mm 5 mps 710 mmHg 92%
    06:00 +12°C° 0.2 mm 5 mps 711 mmHg 91%
    07:00 +12°C° 0.2 mm 4 mps 711 mmHg 90%
    08:00 +13°C° 0.1 mm 5 mps 712 mmHg 86%
    09:00 +14°C° 0.1 mm 5 mps 712 mmHg 82%
    10:00 +15°C° 0.1 mm 5 mps 712 mmHg 78%
    11:00 +16°C° 0 mm 5 mps 712 mmHg 70%
    12:00 +19°C° 0 mm 5 mps 712 mmHg 62%
    13:00 +20°C° 0 mm 5 mps 712 mmHg 55%
    14:00 +21°C° 0 mm 4 mps 712 mmHg 52%
    15:00 +22°C° 0 mm 4 mps 712 mmHg 49%
    16:00 +22°C° 0 mm 4 mps 712 mmHg 46%
    17:00 +21°C° 0 mm 3 mps 712 mmHg 53%
    18:00 +20°C° 0 mm 2 mps 712 mmHg 59%
    19:00 +20°C° 0 mm 1 mps 712 mmHg 65%
    20:00 +18°C° 0 mm 1 mps 713 mmHg 71%
    21:00 +15°C° 0 mm 1 mps 713 mmHg 77%
    22:00 +13°C° 0 mm 1 mps 713 mmHg 83%
    23:00 +13°C° 0 mm 1 mps 713 mmHg 85%

    23 July, Monday

    Time Temperature Precipitation Wind Pressure Humidity
    00:00 +12°C° 0 mm 1 mps 713 mmHg 86%
    01:00 +12°C° 0 mm 1 mps 713 mmHg 87%
    02:00 +11°C° 0 mm 1 mps 713 mmHg 88%
    03:00 +11°C° 0 mm 1 mps 713 mmHg 88%
    04:00 +11°C° 0 mm 1 mps 713 mmHg 88%
    05:00 +13°C° 0 mm 1 mps 713 mmHg 78%
    06:00 +16°C° 0 mm 1 mps 713 mmHg 67%
    07:00 +20°C° 0 mm 1 mps 713 mmHg 57%
    08:00 +22°C° 0 mm 1 mps 713 mmHg 50%
    09:00 +24°C° 0 mm 1 mps 713 mmHg 43%
    10:00 +27°C° 0 mm 1 mps 713 mmHg 36%
    11:00 +28°C° 0 mm 1 mps 713 mmHg 34%
    12:00 +29°C° 0 mm 1 mps 712 mmHg 33%
    13:00 +30°C° 0 mm 2 mps 712 mmHg 31%
    14:00 +29°C° 0 mm 2 mps 712 mmHg 33%
    15:00 +29°C° 0 mm 2 mps 711 mmHg 34%
    16:00 +28°C° 0 mm 2 mps 711 mmHg 35%
    17:00 +26°C° 0 mm 2 mps 711 mmHg 42%
    18:00 +24°C° 0 mm 2 mps 711 mmHg 50%
    19:00 +21°C° 0 mm 2 mps 710 mmHg 57%
    20:00 +20°C° 0 mm 2 mps 710 mmHg 60%
    21:00 +18°C° 0 mm 2 mps 710 mmHg 63%
    22:00 +16°C° 0 mm 2 mps 710 mmHg 66%
    23:00 +16°C° 0 mm 2 mps 710 mmHg 65%

    24 July, Tuesday

    Time Temperature Precipitation Wind Pressure Humidity
    00:00 +15°C° 0 mm 2 mps 710 mmHg 63%
    01:00 +15°C° 0 mm 1 mps 710 mmHg 61%
    02:00 +14°C° 0 mm 2 mps 710 mmHg 60%
    03:00 +14°C° 0 mm 2 mps 710 mmHg 59%
    04:00 +14°C° 0 mm 2 mps 710 mmHg 58%
    05:00 +16°C° 0 mm 1 mps 710 mmHg 52%
    06:00 +19°C° 0 mm 1 mps 710 mmHg 46%
    07:00 +21°C° 0 mm 1 mps 710 mmHg 41%
    08:00 +24°C° 0 mm 1 mps 710 mmHg 37%
    09:00 +26°C° 0 mm 1 mps 710 mmHg 33%
    10:00 +28°C° 0 mm 2 mps 710 mmHg 29%
    11:00 +29°C° 0 mm 2 mps 710 mmHg 28%
    12:00 +30°C° 0 mm 2 mps 709 mmHg 28%
    13:00 +30°C° 0 mm 2 mps 709 mmHg 28%
    14:00 +30°C° 0 mm 2 mps 709 mmHg 28%
    15:00 +30°C° 0 mm 3 mps 708 mmHg 29%
    16:00 +30°C° 0 mm 3 mps 708 mmHg 29%
    17:00 +28°C° 0 mm 2 mps 708 mmHg 36%
    18:00 +25°C° 0 mm 2 mps 708 mmHg 44%
    19:00 +23°C° 0 mm 2 mps 708 mmHg 51%
    20:00 +20°C° 0 mm 2 mps 708 mmHg 52%
    21:00 +19°C° 0 mm 2 mps 708 mmHg 54%
    22:00 +18°C° 0 mm 1 mps 708 mmHg 55%
    23:00 +18°C° 0 mm 1 mps 708 mmHg 56%
    Show more